{"data":{"norad_id":61524,"intl_designator":"2024-183R","name":"STARLINK-32296","alt_names":[],"object_type":"PAYLOAD","status":"ACTIVE","operator":null,"country":"US","launch_date":"2024-10-15","launch_site_code":"AFETR","launch_vehicle":null,"mission":null,"orbit_class":"UNKNOWN","rcs_meters":null,"size_class":null,"mass_kg":null,"dimensions":null,"purposes":["comms"],"wikipedia_slug":null,"has_3d_model":false,"image_url":null,"decayed_at":null,"tle_current":{"epoch":"2026-09-20T16:00:01.998720Z","epoch_age_seconds":177760,"freshness":"STALE","line1":"1 61524U 24183R   26263.66668980  .00023954  00000+0  78135-3 0  9993","line2":"2 61524  53.1583 315.0414 0001095  77.7894 114.5765 15.31693586  5685","mean_motion":15.31693586,"eccentricity":0.0001095,"inclination_deg":53.1583,"raan_deg":315.0414,"arg_perigee_deg":77.7894,"mean_anomaly_deg":114.5765,"bstar":0.00078135,"rev_number":568,"period_min":94.013581643346,"perigee_km":470.00916096801,"apogee_km":471.50906921721,"semimajor_km":6848.8961150926,"source":"CELESTRAK","updated_at":"2026-09-22T09:00:49.358196Z"}}}